Time,TemperatureF,DewpointF,PressureIn,WindDirection,WindDirectionDegrees,WindSpeedMPH,WindSpeedGustMPH,Humidity,HourlyPrecipIn,Conditions,Clouds,dailyrainin,SoftwareType,DateUTC
2013-06-01 00:17:00,71.1,66.0,30.06,ENE,71,0.0,1.0,84,0.00,,---,0.00,VWS V14.01,2013-06-01 04:17:00,
2013-06-01 00:22:00,70.4,66.0,30.06,ENE,71,0.0,1.0,86,0.00,,---,0.00,VWS V14.01,2013-06-01 04:22:00,
2013-06-01 00:27:00,70.7,66.3,30.06,ENE,71,0.0,1.0,86,0.00,,---,0.00,VWS V14.01,2013-06-01 04:27:00,
2013-06-01 00:30:00,70.8,66.1,30.06,ENE,71,0.0,1.0,85,0.00,,---,0.00,VWS V14.01,2013-06-01 04:30:00,
2013-06-01 00:32:00,70.8,66.1,30.05,ENE,71,0.0,0.0,85,0.00,,---,0.00,VWS V14.01,2013-06-01 04:32:00,
2013-06-01 00:37:00,70.9,66.5,30.05,ENE,71,0.0,2.0,86,0.00,,---,0.00,VWS V14.01,2013-06-01 04:37:00,
2013-06-01 00:42:00,70.9,66.2,30.06,ENE,71,2.0,2.0,85,0.00,,---,0.00,VWS V14.01,2013-06-01 04:42:00,
2013-06-01 00:47:00,71.7,66.3,30.06,ENE,71,4.0,5.0,83,0.00,,---,0.00,VWS V14.01,2013-06-01 04:47:00,
2013-06-01 01:19:00,71.8,66.4,30.06,ENE,71,5.0,5.0,83,0.00,,---,0.00,VWS V14.01,2013-06-01 05:19:00,
2013-06-01 01:24:00,75.1,67.8,30.06,NE,49,2.0,6.0,78,0.00,,---,0.00,VWS V14.01,2013-06-01 05:24:00,
2013-06-01 01:29:00,75.0,67.7,30.06,NE,49,2.0,6.0,78,0.00,,---,0.00,VWS V14.01,2013-06-01 05:29:00,
2013-06-01 01:30:00,75.0,67.7,30.06,NE,48,4.0,6.0,78,0.00,,---,0.00,VWS V14.01,2013-06-01 05:30:00,
2013-06-01 01:34:00,75.0,68.1,30.06,NE,52,3.0,7.0,79,0.00,,---,0.00,VWS V14.01,2013-06-01 05:34:00,
2013-06-01 01:39:00,74.8,67.9,30.06,NE,53,3.0,7.0,79,0.00,,---,0.00,VWS V14.01,2013-06-01 05:39:00,
2013-06-01 01:44:00,74.7,67.8,30.06,NE,55,2.0,7.0,79,0.00,,---,0.00,VWS V14.01,2013-06-01 05:44:00,
2013-06-01 01:49:00,74.5,67.6,30.06,East,94,3.0,7.0,79,0.00,,---,0.00,VWS V14.01,2013-06-01 05:49:00,
2013-06-01 01:54:00,74.3,67.7,30.07,East,94,2.0,7.0,80,0.00,,---,0.00,VWS V14.01,2013-06-01 05:54:00,
2013-06-01 01:59:00,74.1,67.5,30.07,East,94,2.0,7.0,80,0.00,,---,0.00,VWS V14.01,2013-06-01 05:59:00,
2013-06-01 02:00:00,74.0,67.4,30.07,East,94,1.0,7.0,80,0.00,,---,0.00,VWS V14.01,2013-06-01 06:00:00,
2013-06-01 02:04:00,74.0,67.4,30.07,East,94,1.0,4.0,80,0.00,,---,0.00,VWS V14.01,2013-06-01 06:04:00,
2013-06-01 02:09:00,73.8,67.6,30.07,East,94,2.0,5.0,81,0.00,,---,0.00,VWS V14.01,2013-06-01 06:09:00,
2013-06-01 02:14:00,73.9,67.7,30.07,East,101,3.0,6.0,81,0.00,,---,0.00,VWS V14.01,2013-06-01 06:14:00,
2013-06-01 02:19:00,73.9,67.3,30.07,East,101,5.0,6.0,80,0.00,,---,0.00,VWS V14.01,2013-06-01 06:19:00,
2013-06-01 02:24:00,74.0,67.4,30.08,ESE,102,0.0,6.0,80,0.00,,---,0.00,VWS V14.01,2013-06-01 06:24:00,
2013-06-01 02:29:00,73.9,67.3,30.08,ESE,102,3.0,6.0,80,0.00,,---,0.00,VWS V14.01,2013-06-01 06:29:00,
2013-06-01 02:30:00,73.9,67.3,30.08,ESE,102,3.0,6.0,80,0.00,,---,0.00,VWS V14.01,2013-06-01 06:30:00,
2013-06-01 02:34:00,73.8,67.2,30.08,ESE,102,6.0,6.0,80,0.00,,---,0.00,VWS V14.01,2013-06-01 06:34:00,
2013-06-01 02:39:00,73.8,67.2,30.08,ESE,103,3.0,6.0,80,0.00,,---,0.00,VWS V14.01,2013-06-01 06:39:00,
2013-06-01 02:44:00,73.8,67.2,30.08,ESE,105,2.0,6.0,80,0.00,,---,0.00,VWS V14.01,2013-06-01 06:44:00,
2013-06-01 02:49:00,73.8,67.2,30.08,SE,138,1.0,7.0,80,0.00,,---,0.00,VWS V14.01,2013-06-01 06:49:00,
2013-06-01 02:54:00,73.7,67.2,30.08,SE,142,3.0,7.0,80,0.00,,---,0.00,VWS V14.01,2013-06-01 06:54:00,
2013-06-01 02:59:00,73.7,67.2,30.08,ESE,117,2.0,7.0,80,0.00,,---,0.00,VWS V14.01,2013-06-01 06:59:00,
2013-06-01 03:00:00,73.7,67.2,30.08,ESE,118,3.0,7.0,80,0.00,,---,0.00,VWS V14.01,2013-06-01 07:00:00,
2013-06-01 03:04:00,73.7,67.2,30.08,ESE,113,5.0,7.0,80,0.00,,---,0.00,VWS V14.01,2013-06-01 07:04:00,
2013-06-01 03:09:00,73.8,66.9,30.08,ESE,115,3.0,7.0,79,0.00,,---,0.00,VWS V14.01,2013-06-01 07:09:00,
2013-06-01 03:14:00,73.7,66.8,30.08,ESE,119,4.0,7.0,79,0.00,,---,0.00,VWS V14.01,2013-06-01 07:14:00,
2013-06-01 03:19:00,73.6,67.1,30.08,SE,142,2.0,7.0,80,0.00,,---,0.00,VWS V14.01,2013-06-01 07:19:00,
2013-06-01 03:24:00,73.6,67.1,30.08,South,171,2.0,9.0,80,0.00,,---,0.00,VWS V14.01,2013-06-01 07:24:00,
2013-06-01 03:29:00,73.5,67.0,30.08,SSE,165,3.0,9.0,80,0.00,,---,0.00,VWS V14.01,2013-06-01 07:29:00,
2013-06-01 03:30:00,73.5,67.0,30.08,SSE,165,2.0,9.0,80,0.00,,---,0.00,VWS V14.01,2013-06-01 07:30:00,
2013-06-01 03:34:00,73.4,66.9,30.08,SSE,149,2.0,6.0,80,0.00,,---,0.00,VWS V14.01,2013-06-01 07:34:00,
2013-06-01 03:39:00,73.3,66.8,30.08,SE,142,4.0,7.0,80,0.00,,---,0.00,VWS V14.01,2013-06-01 07:39:00,
2013-06-01 03:44:00,73.2,66.7,30.08,SE,137,3.0,7.0,80,0.00,,---,0.00,VWS V14.01,2013-06-01 07:44:00,
2013-06-01 03:49:00,73.2,67.0,30.08,SE,138,3.0,7.0,81,0.00,,---,0.00,VWS V14.01,2013-06-01 07:49:00,
2013-06-01 03:54:00,73.2,67.0,30.08,SE,145,1.0,7.0,81,0.00,,---,0.00,VWS V14.01,2013-06-01 07:54:00,
2013-06-01 03:59:00,73.2,67.0,30.08,SE,146,1.0,7.0,81,0.00,,---,0.00,VWS V14.01,2013-06-01 07:59:00,
2013-06-01 04:00:00,73.1,66.9,30.08,SE,146,3.0,7.0,81,0.00,,---,0.00,VWS V14.01,2013-06-01 08:00:00,
2013-06-01 04:04:00,73.0,66.8,30.08,SSE,148,6.0,6.0,81,0.00,,---,0.00,VWS V14.01,2013-06-01 08:04:00,
2013-06-01 04:09:00,73.0,66.8,30.08,SSE,148,3.0,6.0,81,0.00,,---,0.00,VWS V14.01,2013-06-01 08:09:00,
2013-06-01 04:14:00,72.9,66.7,30.08,SSE,148,1.0,6.0,81,0.00,,---,0.00,VWS V14.01,2013-06-01 08:14:00,
2013-06-01 04:19:00,72.9,66.7,30.08,SSE,148,3.0,6.0,81,0.00,,---,0.00,VWS V14.01,2013-06-01 08:19:00,
2013-06-01 04:24:00,72.8,66.6,30.08,SSE,149,3.0,6.0,81,0.00,,---,0.00,VWS V14.01,2013-06-01 08:24:00,
2013-06-01 04:29:00,72.7,66.9,30.08,SSE,149,4.0,6.0,82,0.00,,---,0.00,VWS V14.01,2013-06-01 08:29:00,
2013-06-01 04:30:00,72.7,66.9,30.08,SSE,149,1.0,6.0,82,0.00,,---,0.00,VWS V14.01,2013-06-01 08:30:00,
2013-06-01 04:34:00,72.6,66.8,30.08,SE,141,4.0,9.0,82,0.00,,---,0.00,VWS V14.01,2013-06-01 08:34:00,
2013-06-01 04:39:00,72.6,66.8,30.08,SE,146,4.0,9.0,82,0.00,,---,0.00,VWS V14.01,2013-06-01 08:39:00,
2013-06-01 04:44:00,72.5,66.7,30.08,SE,146,2.0,9.0,82,0.00,,---,0.00,VWS V14.01,2013-06-01 08:44:00,
2013-06-01 04:49:00,72.4,66.6,30.07,SE,144,3.0,9.0,82,0.00,,---,0.00,VWS V14.01,2013-06-01 08:49:00,
2013-06-01 04:54:00,72.3,66.5,30.07,SE,144,2.0,9.0,82,0.00,,---,0.00,VWS V14.01,2013-06-01 08:54:00,
2013-06-01 05:07:00,72.2,66.4,30.07,SE,142,2.0,2.0,82,0.00,,---,0.00,VWS V14.01,2013-06-01 09:07:00,
2013-06-01 09:34:00,72.2,66.4,30.07,SE,142,4.0,4.0,82,0.00,,---,0.00,VWS V14.01,2013-06-01 13:34:00,
2013-06-01 09:39:00,74.4,69.3,30.08,South,186,2.0,4.0,84,0.00,,---,0.00,VWS V14.01,2013-06-01 13:39:00,
2013-06-01 09:44:00,74.1,68.3,30.08,SSW,196,4.0,8.0,82,0.00,,---,0.00,VWS V14.01,2013-06-01 13:44:00,
2013-06-01 09:49:00,74.1,69.0,30.08,SSE,160,2.0,8.0,84,0.00,,---,0.00,VWS V14.01,2013-06-01 13:49:00,
2013-06-01 09:54:00,74.0,68.5,30.08,SW,225,3.0,8.0,83,0.00,,---,0.00,VWS V14.01,2013-06-01 13:54:00,
2013-06-01 09:59:00,73.8,68.3,30.08,SW,217,3.0,8.0,83,0.00,,---,0.00,VWS V14.01,2013-06-01 13:59:00,
2013-06-01 10:00:00,73.9,68.4,30.08,SW,217,3.0,8.0,83,0.00,,---,0.00,VWS V14.01,2013-06-01 14:00:00,
2013-06-01 10:04:00,73.8,68.3,30.08,SW,217,1.0,6.0,83,0.00,,---,0.00,VWS V14.01,2013-06-01 14:04:00,
2013-06-01 10:36:00,73.9,68.4,30.08,SW,217,0.0,6.0,83,0.00,,---,0.00,VWS V14.01,2013-06-01 14:36:00,
2013-06-01 10:41:00,75.7,69.1,30.06,ENE,66,7.0,10.0,80,0.00,,---,0.00,VWS V14.01,2013-06-01 14:41:00,
2013-06-01 10:46:00,76.0,69.4,30.06,SE,144,0.0,10.0,80,0.00,,---,0.00,VWS V14.01,2013-06-01 14:46:00,
2013-06-01 10:51:00,76.5,69.9,30.06,SE,131,3.0,10.0,80,0.00,,---,0.00,VWS V14.01,2013-06-01 14:51:00,
2013-06-01 10:56:00,75.9,68.9,30.07,ESE,113,4.0,10.0,79,0.00,,---,0.00,VWS V14.01,2013-06-01 14:56:00,
2013-06-01 11:00:00,75.6,68.6,30.07,SSW,211,4.0,10.0,79,0.00,,---,0.00,VWS V14.01,2013-06-01 15:00:00,
2013-06-01 11:01:00,75.6,68.6,30.07,SSW,211,5.0,9.0,79,0.00,,---,0.00,VWS V14.01,2013-06-01 15:01:00,
2013-06-01 11:06:00,75.8,69.6,30.07,SSW,205,1.0,9.0,81,0.00,,---,0.00,VWS V14.01,2013-06-01 15:06:00,
2013-06-01 11:11:00,76.1,69.5,30.07,SSE,157,2.0,9.0,80,0.00,,---,0.00,VWS V14.01,2013-06-01 15:11:00,
2013-06-01 11:16:00,76.0,69.0,30.07,South,188,6.0,9.0,79,0.00,,---,0.00,VWS V14.01,2013-06-01 15:16:00,
2013-06-01 11:21:00,75.8,68.8,30.06,SSW,203,0.0,9.0,79,0.00,,---,0.00,VWS V14.01,2013-06-01 15:21:00,
2013-06-01 11:26:00,75.9,68.9,30.06,SSE,159,1.0,9.0,79,0.00,,---,0.00,VWS V14.01,2013-06-01 15:26:00,
2013-06-01 11:30:00,75.9,68.9,30.07,SSE,159,1.0,9.0,79,0.00,,---,0.00,VWS V14.01,2013-06-01 15:30:00,
2013-06-01 11:31:00,76.0,69.4,30.07,SSE,159,1.0,4.0,80,0.00,,---,0.00,VWS V14.01,2013-06-01 15:31:00,
2013-06-01 11:36:00,76.0,69.0,30.07,SSE,155,0.0,6.0,79,0.00,,---,0.00,VWS V14.01,2013-06-01 15:36:00,
2013-06-01 11:41:00,75.8,68.5,30.07,East,85,2.0,7.0,78,0.00,,---,0.00,VWS V14.01,2013-06-01 15:41:00,
2013-06-01 11:46:00,76.0,69.0,30.07,East,86,0.0,7.0,79,0.00,,---,0.00,VWS V14.01,2013-06-01 15:46:00,
2013-06-01 11:51:00,76.2,69.2,30.07,East,88,4.0,7.0,79,0.00,,---,0.00,VWS V14.01,2013-06-01 15:51:00,
2013-06-01 11:56:00,76.3,69.3,30.07,ENE,63,2.0,7.0,79,0.00,,---,0.00,VWS V14.01,2013-06-01 15:56:00,
2013-06-01 12:00:00,76.5,69.1,30.07,ENE,63,2.0,7.0,78,0.00,,---,0.00,VWS V14.01,2013-06-01 16:00:00,
2013-06-01 12:01:00,76.6,69.2,30.07,ENE,63,0.0,3.0,78,0.00,,---,0.00,VWS V14.01,2013-06-01 16:01:00,
2013-06-01 12:06:00,76.8,69.4,30.07,ENE,63,1.0,3.0,78,0.00,,---,0.00,VWS V14.01,2013-06-01 16:06:00,
2013-06-01 12:11:00,76.7,69.3,30.07,ENE,68,0.0,5.0,78,0.00,,---,0.00,VWS V14.01,2013-06-01 16:11:00,
2013-06-01 12:16:00,76.9,69.5,30.07,ENE,68,2.0,5.0,78,0.00,,---,0.00,VWS V14.01,2013-06-01 16:16:00,
2013-06-01 12:21:00,77.3,69.9,30.07,ENE,59,4.0,9.0,78,0.00,,---,0.00,VWS V14.01,2013-06-01 16:21:00,
2013-06-01 12:26:00,78.0,71.0,30.07,ENE,61,2.0,9.0,79,0.00,,---,0.00,VWS V14.01,2013-06-01 16:26:00,
2013-06-01 12:30:00,78.5,70.7,30.07,ENE,63,1.0,9.0,77,0.00,,---,0.00,VWS V14.01,2013-06-01 16:30:00,
2013-06-01 12:31:00,78.6,70.4,30.07,SSW,195,5.0,8.0,76,0.00,,---,0.00,VWS V14.01,2013-06-01 16:31:00,
2013-06-01 12:36:00,78.4,70.6,30.06,SSE,157,2.0,8.0,77,0.00,,---,0.00,VWS V14.01,2013-06-01 16:36:00,
2013-06-01 12:41:00,78.6,70.8,30.07,ENE,76,6.0,13.0,77,0.00,,---,0.00,VWS V14.01,2013-06-01 16:41:00,
2013-06-01 12:46:00,78.7,70.9,30.06,SE,138,5.0,13.0,77,0.00,,---,0.00,VWS V14.01,2013-06-01 16:46:00,
2013-06-01 12:51:00,78.6,70.4,30.06,SSE,165,4.0,13.0,76,0.00,,---,0.00,VWS V14.01,2013-06-01 16:51:00,
2013-06-01 12:56:00,78.8,70.2,30.06,East,83,1.0,13.0,75,0.00,,---,0.00,VWS V14.01,2013-06-01 16:56:00,
2013-06-01 13:00:00,79.0,70.4,30.06,ESE,118,7.0,13.0,75,0.00,,---,0.00,VWS V14.01,2013-06-01 17:00:00,
2013-06-01 13:01:00,79.0,70.4,30.06,ESE,119,2.0,7.0,75,0.00,,---,0.00,VWS V14.01,2013-06-01 17:01:00,
2013-06-01 13:06:00,79.8,71.2,30.06,ESE,123,4.0,7.0,75,0.00,,---,0.00,VWS V14.01,2013-06-01 17:06:00,
2013-06-01 13:11:00,79.7,71.5,30.06,ENE,57,5.0,7.0,76,0.00,,---,0.00,VWS V14.01,2013-06-01 17:11:00,
2013-06-01 13:16:00,79.3,71.5,30.06,ESE,109,2.0,12.0,77,0.00,,---,0.00,VWS V14.01,2013-06-01 17:16:00,
2013-06-01 13:21:00,79.4,70.0,30.05,ENE,65,0.0,12.0,73,0.00,,---,0.00,VWS V14.01,2013-06-01 17:21:00,
2013-06-01 13:26:00,79.6,70.6,30.06,NE,45,2.0,12.0,74,0.00,,---,0.00,VWS V14.01,2013-06-01 17:26:00,
2013-06-01 13:30:00,79.7,71.1,30.06,NNE,30,5.0,12.0,75,0.00,,---,0.00,VWS V14.01,2013-06-01 17:30:00,
2013-06-01 13:31:00,79.7,71.1,30.05,NE,45,3.0,7.0,75,0.00,,---,0.00,VWS V14.01,2013-06-01 17:31:00,
2013-06-01 13:36:00,79.6,70.6,30.05,NE,46,3.0,7.0,74,0.00,,---,0.00,VWS V14.01,2013-06-01 17:36:00,
2013-06-01 13:42:00,79.7,70.7,30.05,NE,49,4.0,10.0,74,0.00,,---,0.00,VWS V14.01,2013-06-01 17:42:00,
2013-06-01 13:47:00,80.2,70.4,30.05,ESE,110,1.0,10.0,72,0.00,,---,0.00,VWS V14.01,2013-06-01 17:47:00,
2013-06-01 13:52:00,80.7,71.2,30.05,ESE,108,4.0,10.0,73,0.00,,---,0.00,VWS V14.01,2013-06-01 17:52:00,
2013-06-01 13:57:00,80.6,70.8,30.05,ESE,102,1.0,10.0,72,0.00,,---,0.00,VWS V14.01,2013-06-01 17:57:00,
2013-06-01 14:00:00,80.6,70.8,30.05,NE,52,5.0,10.0,72,0.00,,---,0.00,VWS V14.01,2013-06-01 18:00:00,
2013-06-01 14:02:00,80.5,71.5,30.05,East,80,3.0,11.0,74,0.00,,---,0.00,VWS V14.01,2013-06-01 18:02:00,
2013-06-01 14:07:00,80.6,70.8,30.05,East,88,5.0,11.0,72,0.00,,---,0.00,VWS V14.01,2013-06-01 18:07:00,
2013-06-01 14:12:00,80.6,71.2,30.05,East,92,6.0,11.0,73,0.00,,---,0.00,VWS V14.01,2013-06-01 18:12:00,
2013-06-01 14:44:00,80.6,71.2,30.05,ESE,109,4.0,11.0,73,0.00,,---,0.00,VWS V14.01,2013-06-01 18:44:00,
2013-06-01 14:49:00,81.0,70.7,30.04,ESE,111,2.0,11.0,71,0.00,,---,0.00,VWS V14.01,2013-06-01 18:49:00,
2013-06-01 14:54:00,81.3,70.6,30.04,ESE,122,4.0,11.0,70,0.00,,---,0.00,VWS V14.01,2013-06-01 18:54:00,
2013-06-01 14:59:00,80.6,69.9,30.04,SE,127,4.0,11.0,70,0.00,,---,0.00,VWS V14.01,2013-06-01 18:59:00,
2013-06-01 15:00:00,80.6,69.9,30.04,SE,125,3.0,11.0,70,0.00,,---,0.00,VWS V14.01,2013-06-01 19:00:00,
2013-06-01 15:04:00,80.6,70.3,30.04,ENE,78,7.0,7.0,71,0.00,,---,0.00,VWS V14.01,2013-06-01 19:04:00,
2013-06-01 15:09:00,80.8,70.5,30.03,East,88,3.0,7.0,71,0.00,,---,0.00,VWS V14.01,2013-06-01 19:09:00,
2013-06-01 15:14:00,80.9,70.2,30.03,East,91,3.0,7.0,70,0.00,,---,0.00,VWS V14.01,2013-06-01 19:14:00,
2013-06-01 15:19:00,80.7,70.0,30.03,ESE,102,3.0,7.0,70,0.00,,---,0.00,VWS V14.01,2013-06-01 19:19:00,
2013-06-01 15:24:00,80.7,71.2,30.03,East,79,4.0,7.0,73,0.00,,---,0.00,VWS V14.01,2013-06-01 19:24:00,
2013-06-01 15:29:00,81.1,70.0,30.02,SSE,162,5.0,8.0,69,0.00,,---,0.00,VWS V14.01,2013-06-01 19:29:00,
2013-06-01 15:30:00,81.1,70.0,30.02,SSE,163,2.0,8.0,69,0.00,,---,0.00,VWS V14.01,2013-06-01 19:30:00,
2013-06-01 15:34:00,81.0,70.3,30.02,ENE,61,4.0,6.0,70,0.00,,---,0.00,VWS V14.01,2013-06-01 19:34:00,
2013-06-01 15:39:00,81.2,70.5,30.02,ENE,65,2.0,6.0,70,0.00,,---,0.00,VWS V14.01,2013-06-01 19:39:00,
2013-06-01 15:44:00,81.5,70.4,30.02,SSE,153,3.0,6.0,69,0.00,,---,0.00,VWS V14.01,2013-06-01 19:44:00,
2013-06-01 15:50:00,81.4,70.3,30.02,SSE,168,5.0,8.0,69,0.00,,---,0.00,VWS V14.01,2013-06-01 19:50:00,
2013-06-01 15:55:00,81.9,70.3,30.01,East,88,1.0,9.0,68,0.00,,---,0.00,VWS V14.01,2013-06-01 19:55:00,
2013-06-01 16:00:00,82.6,71.0,30.01,SSE,163,3.0,5.0,68,0.00,,---,0.00,VWS V14.01,2013-06-01 20:00:00,
2013-06-01 16:05:00,82.6,71.4,30.01,SE,142,4.0,9.0,69,0.00,,---,0.00,VWS V14.01,2013-06-01 20:05:00,
2013-06-01 16:10:00,82.6,71.4,30.00,ESE,123,9.0,12.0,69,0.00,,---,0.00,VWS V14.01,2013-06-01 20:10:00,
2013-06-01 16:15:00,82.5,71.3,30.00,ENE,76,7.0,12.0,69,0.00,,---,0.00,VWS V14.01,2013-06-01 20:15:00,
2013-06-01 16:20:00,82.4,70.3,30.00,ESE,115,7.0,12.0,67,0.00,,---,0.00,VWS V14.01,2013-06-01 20:20:00,
2013-06-01 16:25:00,82.6,70.5,30.00,SSE,161,5.0,12.0,67,0.00,,---,0.00,VWS V14.01,2013-06-01 20:25:00,
2013-06-01 16:30:00,82.6,69.7,30.00,SSW,211,5.0,6.0,65,0.00,,---,0.00,VWS V14.01,2013-06-01 20:30:00,
2013-06-01 16:35:00,83.1,71.4,30.00,SSE,158,5.0,6.0,68,0.00,,---,0.00,VWS V14.01,2013-06-01 20:35:00,
2013-06-01 16:40:00,83.1,71.0,30.00,East,85,2.0,13.0,67,0.00,,---,0.00,VWS V14.01,2013-06-01 20:40:00,
2013-06-01 16:45:00,82.8,70.7,30.00,SE,141,3.0,13.0,67,0.00,,---,0.00,VWS V14.01,2013-06-01 20:45:00,
2013-06-01 16:50:00,82.6,70.5,30.00,South,186,3.0,13.0,67,0.00,,---,0.00,VWS V14.01,2013-06-01 20:50:00,
2013-06-01 16:55:00,82.7,70.2,30.00,SSW,198,6.0,13.0,66,0.00,,---,0.00,VWS V14.01,2013-06-01 20:55:00,
2013-06-01 17:00:00,82.6,70.5,30.00,East,82,6.0,15.0,67,0.00,,---,0.00,VWS V14.01,2013-06-01 21:00:00,
2013-06-01 17:05:00,82.2,70.2,30.00,East,101,1.0,15.0,67,0.00,,---,0.00,VWS V14.01,2013-06-01 21:05:00,
2013-06-01 17:10:00,82.2,69.7,30.00,East,82,3.0,15.0,66,0.00,,---,0.00,VWS V14.01,2013-06-01 21:10:00,
2013-06-01 17:15:00,82.4,69.9,29.99,East,94,3.0,15.0,66,0.00,,---,0.00,VWS V14.01,2013-06-01 21:15:00,
2013-06-01 17:20:00,82.3,69.8,29.99,ENE,76,4.0,15.0,66,0.00,,---,0.00,VWS V14.01,2013-06-01 21:20:00,
2013-06-01 17:25:00,82.4,70.3,29.99,SSE,155,1.0,15.0,67,0.00,,---,0.00,VWS V14.01,2013-06-01 21:25:00,
2013-06-01 17:30:00,82.5,69.6,29.99,SSW,209,4.0,8.0,65,0.00,,---,0.00,VWS V14.01,2013-06-01 21:30:00,
2013-06-01 17:35:00,82.4,69.9,29.99,South,190,4.0,8.0,66,0.00,,---,0.00,VWS V14.01,2013-06-01 21:35:00,
2013-06-01 17:40:00,82.6,70.1,29.99,ENE,67,2.0,8.0,66,0.00,,---,0.00,VWS V14.01,2013-06-01 21:40:00,
2013-06-01 17:45:00,82.8,70.3,29.98,East,82,1.0,8.0,66,0.00,,---,0.00,VWS V14.01,2013-06-01 21:45:00,
2013-06-01 17:50:00,82.8,70.3,29.98,NE,45,12.0,12.0,66,0.00,,---,0.00,VWS V14.01,2013-06-01 21:50:00,
2013-06-01 17:55:00,82.7,71.1,29.98,ENE,71,2.0,12.0,68,0.00,,---,0.00,VWS V14.01,2013-06-01 21:55:00,
2013-06-01 18:00:00,82.8,71.2,29.98,East,92,3.0,3.0,68,0.00,,---,0.00,VWS V14.01,2013-06-01 22:00:00,
2013-06-01 18:05:00,82.9,70.8,29.98,SSE,167,3.0,6.0,67,0.00,,---,0.00,VWS V14.01,2013-06-01 22:05:00,
2013-06-01 18:10:00,82.5,70.4,29.98,East,90,1.0,6.0,67,0.00,,---,0.00,VWS V14.01,2013-06-01 22:10:00,
2013-06-01 18:15:00,82.2,70.6,29.98,East,98,3.0,6.0,68,0.00,,---,0.00,VWS V14.01,2013-06-01 22:15:00,
2013-06-01 18:20:00,82.1,70.1,29.97,East,90,4.0,7.0,67,0.00,,---,0.00,VWS V14.01,2013-06-01 22:20:00,
2013-06-01 18:25:00,82.1,70.1,29.97,ESE,120,4.0,9.0,67,0.00,,---,0.00,VWS V14.01,2013-06-01 22:25:00,
2013-06-01 18:30:00,82.1,70.1,29.98,SE,130,1.0,3.0,67,0.00,,---,0.00,VWS V14.01,2013-06-01 22:30:00,
2013-06-01 18:35:00,82.0,70.0,29.98,SSE,153,3.0,7.0,67,0.00,,---,0.00,VWS V14.01,2013-06-01 22:35:00,
2013-06-01 18:40:00,81.8,70.2,29.98,SE,133,2.0,7.0,68,0.00,,---,0.00,VWS V14.01,2013-06-01 22:40:00,
2013-06-01 18:45:00,81.7,69.7,29.97,East,91,2.0,7.0,67,0.00,,---,0.00,VWS V14.01,2013-06-01 22:45:00,
2013-06-01 18:50:00,81.5,69.5,29.97,East,84,6.0,8.0,67,0.00,,---,0.00,VWS V14.01,2013-06-01 22:50:00,
2013-06-01 18:55:00,81.2,69.2,29.97,East,83,5.0,8.0,67,0.00,,---,0.00,VWS V14.01,2013-06-01 22:55:00,
2013-06-01 19:00:00,81.0,69.0,29.98,East,92,1.0,2.0,67,0.00,,---,0.00,VWS V14.01,2013-06-01 23:00:00,
2013-06-01 19:05:00,80.9,68.9,29.98,East,92,2.0,4.0,67,0.00,,---,0.00,VWS V14.01,2013-06-01 23:05:00,
2013-06-01 19:10:00,80.9,68.9,29.98,ENE,62,2.0,6.0,67,0.00,,---,0.00,VWS V14.01,2013-06-01 23:10:00,
2013-06-01 19:15:00,80.8,68.8,29.98,ENE,63,2.0,6.0,67,0.00,,---,0.00,VWS V14.01,2013-06-01 23:15:00,
2013-06-01 19:20:00,80.8,69.3,29.98,ENE,63,1.0,6.0,68,0.00,,---,0.00,VWS V14.01,2013-06-01 23:20:00,
2013-06-01 19:25:00,80.8,69.3,29.98,ENE,63,0.0,6.0,68,0.00,,---,0.00,VWS V14.01,2013-06-01 23:25:00,
2013-06-01 19:30:00,80.8,69.3,29.98,ENE,63,0.0,0.0,68,0.00,,---,0.00,VWS V14.01,2013-06-01 23:30:00,
2013-06-01 19:35:00,80.7,69.2,29.98,ENE,63,3.0,3.0,68,0.00,,---,0.00,VWS V14.01,2013-06-01 23:35:00,
2013-06-01 19:40:00,80.6,69.5,29.98,ENE,63,1.0,4.0,69,0.00,,---,0.00,VWS V14.01,2013-06-01 23:40:00,
2013-06-01 19:45:00,80.6,69.5,29.97,ENE,63,0.0,4.0,69,0.00,,---,0.00,VWS V14.01,2013-06-01 23:45:00,
2013-06-01 19:50:00,80.6,69.9,29.97,ENE,63,1.0,4.0,70,0.00,,---,0.00,VWS V14.01,2013-06-01 23:50:00,
2013-06-01 19:55:00,80.6,69.5,29.97,ENE,63,1.0,4.0,69,0.00,,---,0.00,VWS V14.01,2013-06-01 23:55:00,
2013-06-01 20:00:00,80.5,69.4,29.96,ENE,63,3.0,4.0,69,0.00,,---,0.00,VWS V14.01,2013-06-02 00:00:00,
2013-06-01 20:05:00,80.3,69.6,29.96,ENE,63,1.0,4.0,70,0.00,,---,0.00,VWS V14.01,2013-06-02 00:05:00,
2013-06-01 20:10:00,80.0,69.8,29.97,ENE,63,0.0,4.0,71,0.00,,---,0.00,VWS V14.01,2013-06-02 00:10:00,
2013-06-01 20:15:00,79.8,69.6,29.97,ENE,63,0.0,4.0,71,0.00,,---,0.00,VWS V14.01,2013-06-02 00:15:00,
2013-06-01 20:20:00,79.5,69.7,29.97,ENE,63,1.0,4.0,72,0.00,,---,0.00,VWS V14.01,2013-06-02 00:20:00,
2013-06-01 20:25:00,79.4,69.6,29.97,ENE,63,0.0,4.0,72,0.00,,---,0.00,VWS V14.01,2013-06-02 00:25:00,
2013-06-01 20:30:00,79.2,69.4,29.97,ENE,63,0.0,0.0,72,0.00,,---,0.00,VWS V14.01,2013-06-02 00:30:00,
2013-06-01 20:35:00,79.1,69.3,29.98,ENE,63,0.0,1.0,72,0.00,,---,0.00,VWS V14.01,2013-06-02 00:35:00,
2013-06-01 20:40:00,79.0,70.0,29.98,ENE,63,0.0,1.0,74,0.00,,---,0.00,VWS V14.01,2013-06-02 00:40:00,
2013-06-01 20:45:00,78.7,70.5,29.98,ENE,63,0.0,1.0,76,0.00,,---,0.00,VWS V14.01,2013-06-02 00:45:00,
2013-06-01 20:50:00,78.4,71.3,29.98,ENE,63,0.0,1.0,79,0.00,,---,0.00,VWS V14.01,2013-06-02 00:50:00,
2013-06-01 20:55:00,78.1,70.7,29.98,ENE,63,0.0,1.0,78,0.00,,---,0.00,VWS V14.01,2013-06-02 00:55:00,
2013-06-01 21:00:00,77.9,70.1,29.98,ENE,63,0.0,0.0,77,0.00,,---,0.00,VWS V14.01,2013-06-02 01:00:00,
2013-06-01 21:05:00,77.8,70.8,29.99,ENE,63,0.0,1.0,79,0.00,,---,0.00,VWS V14.01,2013-06-02 01:05:00,
2013-06-01 21:10:00,77.6,70.6,29.99,ENE,63,0.0,1.0,79,0.00,,---,0.00,VWS V14.01,2013-06-02 01:10:00,
2013-06-01 21:15:00,77.4,70.4,29.99,ENE,63,0.0,2.0,79,0.00,,---,0.00,VWS V14.01,2013-06-02 01:15:00,
2013-06-01 21:20:00,76.8,70.5,29.99,ENE,63,0.0,2.0,81,0.00,,---,0.00,VWS V14.01,2013-06-02 01:20:00,
2013-06-01 21:25:00,76.6,70.7,30.00,ENE,63,0.0,2.0,82,0.00,,---,0.00,VWS V14.01,2013-06-02 01:25:00,
2013-06-01 21:30:00,76.4,70.5,30.00,ENE,63,0.0,0.0,82,0.00,,---,0.00,VWS V14.01,2013-06-02 01:30:00,
2013-06-01 21:35:00,76.3,70.4,30.00,ENE,63,0.0,0.0,82,0.00,,---,0.00,VWS V14.01,2013-06-02 01:35:00,
2013-06-01 21:40:00,76.2,70.3,30.01,ENE,63,0.0,0.0,82,0.00,,---,0.00,VWS V14.01,2013-06-02 01:40:00,
2013-06-01 21:45:00,76.2,70.7,30.01,ENE,63,0.0,0.0,83,0.00,,---,0.00,VWS V14.01,2013-06-02 01:45:00,
2013-06-01 21:50:00,76.0,70.5,30.01,ENE,63,0.0,0.0,83,0.00,,---,0.00,VWS V14.01,2013-06-02 01:50:00,
2013-06-01 21:55:00,76.0,70.5,30.02,ENE,63,0.0,1.0,83,0.00,,---,0.00,VWS V14.01,2013-06-02 01:55:00,
2013-06-01 22:00:00,76.0,70.1,30.01,ENE,63,0.0,0.0,82,0.00,,---,0.00,VWS V14.01,2013-06-02 02:00:00,
2013-06-01 22:05:00,76.1,70.6,30.01,ENE,63,0.0,0.0,83,0.00,,---,0.00,VWS V14.01,2013-06-02 02:05:00,
2013-06-01 22:10:00,76.1,70.6,30.01,ENE,63,0.0,1.0,83,0.00,,---,0.00,VWS V14.01,2013-06-02 02:10:00,
2013-06-01 22:15:00,76.1,70.6,30.01,ENE,63,0.0,1.0,83,0.00,,---,0.00,VWS V14.01,2013-06-02 02:15:00,
2013-06-01 22:20:00,76.1,70.2,30.01,ENE,63,0.0,1.0,82,0.00,,---,0.00,VWS V14.01,2013-06-02 02:20:00,
2013-06-01 22:25:00,76.0,70.1,30.02,ENE,63,0.0,1.0,82,0.00,,---,0.00,VWS V14.01,2013-06-02 02:25:00,
2013-06-01 22:30:00,76.0,70.8,30.02,ENE,63,0.0,0.0,84,0.00,,---,0.00,VWS V14.01,2013-06-02 02:30:00,
2013-06-01 22:35:00,75.9,71.1,30.02,ENE,63,0.0,0.0,85,0.00,,---,0.00,VWS V14.01,2013-06-02 02:35:00,
2013-06-01 22:40:00,75.6,71.1,30.02,ENE,63,0.0,0.0,86,0.00,,---,0.00,VWS V14.01,2013-06-02 02:40:00,
2013-06-01 22:45:00,75.5,71.4,30.02,ENE,63,0.0,0.0,87,0.00,,---,0.00,VWS V14.01,2013-06-02 02:45:00,
2013-06-01 22:50:00,75.1,71.3,30.02,ENE,63,0.0,0.0,88,0.01,,---,0.01,VWS V14.01,2013-06-02 02:50:00,
2013-06-01 22:55:00,74.7,71.2,30.01,ENE,63,2.0,3.0,89,0.02,,---,0.02,VWS V14.01,2013-06-02 02:55:00,
2013-06-01 23:00:00,74.1,71.0,30.01,ENE,63,1.0,1.0,90,0.02,,---,0.02,VWS V14.01,2013-06-02 03:00:00,
2013-06-01 23:05:00,73.7,70.6,30.00,ENE,63,0.0,1.0,90,0.02,,---,0.02,VWS V14.01,2013-06-02 03:05:00,
2013-06-01 23:10:00,73.4,70.6,30.01,ENE,63,0.0,1.0,91,0.02,,---,0.02,VWS V14.01,2013-06-02 03:10:00,
2013-06-01 23:15:00,73.2,70.7,30.01,ENE,63,0.0,1.0,92,0.02,,---,0.02,VWS V14.01,2013-06-02 03:15:00,
2013-06-01 23:20:00,73.1,70.6,30.01,ENE,63,0.0,1.0,92,0.02,,---,0.02,VWS V14.01,2013-06-02 03:20:00,
2013-06-01 23:25:00,72.7,70.2,30.00,ENE,63,3.0,4.0,92,0.02,,---,0.02,VWS V14.01,2013-06-02 03:25:00,
2013-06-01 23:30:00,72.3,70.2,30.00,ENE,63,1.0,1.0,93,0.02,,---,0.02,VWS V14.01,2013-06-02 03:30:00,
2013-06-01 23:35:00,72.0,69.9,29.99,ENE,63,4.0,4.0,93,0.02,,---,0.02,VWS V14.01,2013-06-02 03:35:00,
2013-06-01 23:37:00,71.8,69.7,29.99,ENE,63,2.0,6.0,93,0.02,,---,0.02,VWS V14.01,2013-06-02 03:37:00,
2013-06-01 23:51:00,71.8,69.7,29.99,ENE,63,2.0,6.0,93,0.02,,---,0.02,VWS V14.01,2013-06-02 03:51:00,
2013-06-01 23:56:00,71.4,69.3,29.98,ENE,63,0.0,6.0,93,0.02,,---,0.02,VWS V14.01,2013-06-02 03:56:00,